Weather Roundup
Issued by NWS

Home | Current Version | Previous Version | Text Only | Print | Product List | Glossary On
Versions: 1 2 3 4 5 6 7 8 9 10 11 12 13 14 15 16 17 18 19 20 21 22 23 24 25 26 27 28 29 30 31 32 33 34 35 36 37 38 39 40 41 42 43 44 45 46 47 48 49 50
000
NZUS93 KARX 290859
HRRWXR

CURRENT HOURLY OBSERVATIONS ACROSS
MUCH OF THE UPPER MISSISSIPPI VALLEY
NATIONAL WEATHER SERVICE LA CROSSE WI
400 AM CDT SAT AUG 29 2015


...SOUTHEAST MINNESOTA...


CITY           SKY/WX    TMP DP  RH WIND       PRES   REMARKS
ROCHESTER      CLOUDY    58  57  97 E8        30.01S FOG
ROCHESTER/MAYO CLOUDY    58  58 100 NE6       30.01S
WINONA         CLOUDY    61  57  88 CALM      30.01S
AUSTIN         FOG       61  57  88 E8        29.99S VSB 1
ALBERT LEA     FOG       59  57  94 NE6       30.00S VSB 3/4
DODGE CENTER   CLOUDY    55  55 100 NE3       30.01S FOG
PRESTON        CLOUDY    58  56  95 NE3       30.01S FOG
OWATONNA       CLOUDY    57  55  94 E5        30.02R FOG
FARIBAULT      CLOUDY    57  55  94 CALM      30.03R
$$

...ELSEWHERE IN MINNESOTA...


CITY           SKY/WX    TMP DP  RH WIND       PRES   REMARKS
MINNEAPOLIS    CLEAR     58  55  90 E5        30.03S
INTNL FALLS    NOT AVBL
DULUTH         CLOUDY    59  56  89 NE15G21   30.09R
RED WING       CLEAR     55  54  94 E5        30.02S
REDWOOD FALLS  FOG       53  52  96 CALM      30.03R VSB 1
MANKATO        CLOUDY    57  54  88 E3        30.03R
WORTHINGTON    CLOUDY    52  46  82 CALM      30.02S VSB 1/2
FAIRMONT       CLOUDY    57  52  82 N5        30.02R
$$

...SOUTHWEST WISCONSIN...


CITY           SKY/WX    TMP DP  RH WIND       PRES   REMARKS
LA CROSSE      CLOUDY    60  57  89 E6        29.99F
PRAIRIE DU CHI LGT RAIN  63  62  96 CALM      29.96S
BOSCOBEL       LGT RAIN  63  61  93 VRB5      29.98S FOG
LONE ROCK      NOT AVBL
PLATTEVILLE    CLOUDY    64  64  99 S8        29.97S
FORT MC COY    CLOUDY    58  56  94 E6        30.02F
CAMP DOUGLAS   CLOUDY    57  57 100 E5        30.02F
VIROQUA        CLOUDY    58  58 100 E6        30.00S
WIS DELLS      DRIZZLE   57  56  94 E12       30.02F
$$

...ELSEWHERE IN WISCONSIN...


CITY           SKY/WX    TMP DP  RH WIND       PRES   REMARKS
MILWAUKEE      RAIN      64  62  93 E10       30.04F FOG
MADISON        RAIN      63  61  93 E8        30.01F FOG
GREEN BAY      LGT RAIN  58  57  97 CALM      30.09F FOG
EAU CLAIRE     NOT AVBL
BLACK RVR FLS  CLOUDY    58  58 100 CALM      30.02F
MEDFORD        CLEAR     51  51  99 NE3       30.07R
WAUSAU         CLOUDY    57  54  89 SE7       30.05S
WIS RAPIDS     CLOUDY    59  56  89 E3        30.06F
MARSHFIELD     CLOUDY    57  53  86 SE9       30.05S
RICE LAKE      PTCLDY    53  51  94 NE3       30.07S
$$

...NORTHEAST IOWA...


CITY           SKY/WX    TMP DP  RH WIND       PRES   REMARKS
DECORAH        CLOUDY    61  61 100 VRB6      29.97S FOG
MASON CITY     CLOUDY    60  59  96 NE8       30.00R FOG
CHARLES CITY   CLOUDY    61  61 100 NE7       29.98R FOG
OELWEIN        CLOUDY    64  64 100 CALM      29.95S FOG
$$

...ELSEWHERE IN IOWA...


CITY           SKY/WX    TMP DP  RH WIND       PRES   REMARKS
DES MOINES     DRIZZLE   65  63  93 N9        29.94R FOG
IOWA CITY      LGT RAIN  66  66 100 SE3       29.94R
FORT DODGE     CLOUDY    61  57  88 N6        29.99R
$$

...NORTHERN ILLINOIS...


CITY           SKY/WX    TMP DP  RH WIND       PRES   REMARKS
CHICAGO-OHARE  LGT RAIN  65  61  87 S8        30.03F
CHICAGO-MIDWAY LGT RAIN  68  60  75 SE6       30.04F
MOLINE         CLOUDY    68  62  81 S6        29.95S
ROCKFORD       RAIN      64  61  90 S12       30.04S FOG
PEORIA         CLOUDY    68  62  81 S9        30.00F
$$

NOTE: "FAIR" INDICATES FEW OR NO CLOUDS BELOW 12,000 FEET WITH NO
SIGNIFICANT WEATHER AND/OR OBSTRUCTIONS TO VISIBILITY. WIND
SPEEDS ARE IN MILES-PER-HOUR.



USA.gov is the U.S. government's official web portal to all federal, state and local government web resources and services.